Weather reports worldwide

Advertisment
Herstmonceux, United Kingdom (3882): temperature & dewpoint: 15.01.2020 06:00:00 - 21.01.2020 06:00:00 (GMT)Herstmonceux, United Kingdom (3882): temperature -20cm & temperature -100cm: 15.01.2020 06:00:00 - 21.01.2020 06:00:00 (GMT)Herstmonceux, United Kingdom (3882): wind speed & gusts: 15.01.2020 06:00:00 - 21.01.2020 06:00:00 (GMT)Herstmonceux, United Kingdom (3882): wind direction: 15.01.2020 06:00:00 - 21.01.2020 06:00:00 (GMT)Herstmonceux, United Kingdom (3882): reduced air pressure: 15.01.2020 06:00:00 - 21.01.2020 06:00:00 (GMT)Herstmonceux, United Kingdom (3882): visibility: 15.01.2020 06:00:00 - 21.01.2020 06:00:00 (GMT)Herstmonceux, United Kingdom (3882): sunshine duration: 15.01.2020 06:00:00 - 21.01.2020 06:00:00 (GMT)Herstmonceux, United Kingdom (3882): precipitation: 15.01.2020 06:00:00 - 21.01.2020 06:00:00 (GMT)
Date & Time tt [°C] td [°C] tt -20cm [°C] tt -100cm [°C] ff [km/h] ff [kn] fx [km/h] fx [kn] dd ppp [hPa] vv [km] sd [min] rr [mm]
21.01.2020 06:00:00 0,5 0,0 - - 4 2 - - NNE 1042,4 16 0 0,0
21.01.2020 05:00:00 -1,0 -1,6 - - 4 2 - - NE 1042,5 14 0 0,0
21.01.2020 04:00:00 -0,8 -1,6 - - 4 2 - - E 1042,9 14 0 0,0
21.01.2020 03:00:00 -0,5 -1,9 - - 0 0 - - N 1043,2 13 0 0,0
21.01.2020 02:00:00 1,2 -0,9 - - 2 1 - - NNE 1043,6 24 0 0,0
21.01.2020 01:00:00 2,7 -0,6 - - 5 3 - - NNE 1044,2 25 0 0,0
21.01.2020 00:00:00 2,0 -1,6 - - 4 2 - - NNE 1044,8 25 - 0,0
20.01.2020 23:00:00 3,5 -1,8 - - 8 4 - - N 1044,8 21 0 0,0
20.01.2020 22:00:00 2,4 -1,2 - - 8 4 - - N 1045,0 22 0 0,0
20.01.2020 21:00:00 1,6 -1,3 - - 5 3 - - NNE 1045,3 20 0 0,0
20.01.2020 20:00:00 0,6 -1,8 - - 2 1 - - N 1045,9 11 0 0,0
20.01.2020 19:00:00 1,9 -1,4 - - 2 1 - - NW 1046,0 12 0 0,0
20.01.2020 18:00:00 2,3 -1,5 - - 2 1 - - W 1046,3 30 0 0,0
20.01.2020 17:00:00 3,7 -1,5 - - 2 1 - - WNW 1046,4 40 0 0,0
20.01.2020 16:00:00 6,3 0,1 - - 2 1 - - W 1046,6 30 0 0,0
20.01.2020 15:00:00 6,9 -0,4 - - 4 2 - - W 1046,8 35 0 0,0
20.01.2020 14:00:00 7,0 1,5 - - 2 1 - - WNW 1047,5 24 0 0,0
20.01.2020 13:00:00 7,7 -1,1 - - 4 2 - - W 1047,8 40 12 0,0
20.01.2020 12:00:00 7,4 0,1 - - 2 1 - - SSE 1048,5 30 42 0,0
20.01.2020 11:00:00 4,5 1,9 - - 2 1 - - ENE 1049,0 30 24 0,0
20.01.2020 10:00:00 0,9 -0,2 - - 2 1 - - WNW 1049,0 15 0 0,0
20.01.2020 09:00:00 0,9 -1,2 6,0 8,7 2 1 - - SSE 1049,2 22 0 0,0
20.01.2020 08:00:00 0,3 -0,8 - - 5 3 - - N 1048,9 26 0 0,0
20.01.2020 07:00:00 0,1 -0,4 - - 0 0 - - N 1048,7 23 0 0,0
20.01.2020 06:00:00 -1,0 -1,9 - - 2 1 - - W 1048,7 16 0 0,0
20.01.2020 05:00:00 1,1 -0,4 - - 4 2 - - N 1048,4 27 0 0,0
20.01.2020 04:00:00 0,5 -0,6 - - 5 3 - - N 1048,6 21 0 0,0
20.01.2020 03:00:00 0,7 0,0 - - 2 1 - - NW 1048,4 18 0 0,0
20.01.2020 02:00:00 0,1 -1,3 - - 4 2 - - WSW 1048,4 17 0 0,0
20.01.2020 01:00:00 0,9 -0,1 - - 5 3 - - NNE 1048,8 16 0 0,0
20.01.2020 00:00:00 1,4 0,1 - - 8 4 - - N 1049,1 16 - 0,0
19.01.2020 23:00:00 1,0 0,7 - - 5 3 - - N 1049,1 12 0 0,0
19.01.2020 22:00:00 0,8 0,4 - - 2 1 - - ESE 1048,9 9 0 0,0
19.01.2020 21:00:00 0,6 -0,7 - - 2 1 - - S 1048,4 8 0 0,0
19.01.2020 20:00:00 2,5 0,8 - - 5 3 - - N 1048,0 18 0 0,0
19.01.2020 19:00:00 3,7 1,8 - - 9 5 - - NNE 1047,7 16 0 0,0
19.01.2020 18:00:00 3,9 1,8 - - 9 5 - - N 1047,0 17 0 0,0
19.01.2020 17:00:00 4,8 1,6 - - 9 5 - - NNE 1046,5 17 0 0,0
19.01.2020 16:00:00 6,4 1,6 - - 11 6 - - NNE 1046,1 22 60 0,0
19.01.2020 15:00:00 7,9 1,7 - - 5 3 - - NE 1045,0 22 60 0,0
19.01.2020 14:00:00 7,9 1,5 - - 13 7 - - NNE 1044,5 20 60 0,0
19.01.2020 13:00:00 7,8 1,7 - - 13 7 - - NNE 1044,3 18 60 0,0
19.01.2020 12:00:00 7,1 1,8 - - 9 5 - - NNE 1044,1 30 60 0,0
19.01.2020 11:00:00 5,6 1,3 - - 9 5 - - NNE 1044,0 18 30 0,2
19.01.2020 10:00:00 3,3 1,0 - - 5 3 - - N 1043,7 23 0 0,0
19.01.2020 09:00:00 0,3 -0,9 6,9 8,7 5 3 - - WNW 1042,9 30 0 0,0
19.01.2020 08:00:00 1,3 -0,7 - - 8 4 - - NW 1042,1 35 0 0,0
19.01.2020 07:00:00 1,0 -0,8 - - 8 4 - - NNW 1041,0 35 0 0,0
19.01.2020 06:00:00 1,4 -0,3 - - 8 4 - - N 1039,9 30 0 0,0
19.01.2020 05:00:00 0,6 -0,7 - - 4 2 - - N 1039,1 24 0 0,0
19.01.2020 04:00:00 0,8 -0,7 - - 4 2 - - NNW 1038,5 23 0 0,0
19.01.2020 03:00:00 1,7 0,0 - - 8 4 - - NNW 1038,0 23 0 0,0
19.01.2020 02:00:00 2,4 0,4 - - 8 4 - - NNW 1037,4 17 0 0,0
19.01.2020 01:00:00 2,4 0,4 - - 8 4 - - N 1036,2 15 0 0,0
19.01.2020 00:00:00 2,4 0,3 - - 5 3 - - N 1035,2 18 - 0,0
18.01.2020 23:00:00 3,2 0,5 - - 11 6 - - N 1034,5 21 0 0,0
18.01.2020 22:00:00 2,9 0,2 - - 8 4 - - N 1033,7 21 0 0,0
18.01.2020 21:00:00 3,2 0,4 - - 9 5 - - N 1033,3 22 0 0,0
18.01.2020 20:00:00 2,5 0,2 - - 4 2 - - NNW 1032,7 19 0 0,0
18.01.2020 19:00:00 3,2 0,4 - - 4 2 - - N 1031,9 20 0 0,0
18.01.2020 18:00:00 2,8 0,0 - - 4 2 - - N 1031,3 23 0 0,0
18.01.2020 17:00:00 3,5 -0,3 - - 4 2 - - NNW 1030,5 20 0 0,0
18.01.2020 16:00:00 5,7 -0,1 - - 4 2 - - N 1029,8 30 36 0,0
18.01.2020 15:00:00 6,9 0,0 - - 9 5 - - NNW 1029,1 26 60 0,0
18.01.2020 14:00:00 7,3 -0,3 - - 11 6 - - N 1028,4 28 60 0,0
18.01.2020 13:00:00 7,0 0,8 - - 9 5 - - N 1028,2 16 60 0,0
18.01.2020 12:00:00 6,6 1,2 - - 9 5 - - NNW 1028,1 24 60 0,0
18.01.2020 11:00:00 4,5 2,3 - - 8 4 - - NNW 1027,8 30 30 0,0
18.01.2020 10:00:00 1,8 1,4 - - 5 3 - - W 1027,2 22 0 0,0
18.01.2020 09:00:00 1,5 0,9 7,9 8,9 8 4 - - NW 1026,8 28 0 0,0
18.01.2020 08:00:00 1,0 0,7 - - 9 5 - - NNW 1026,2 20 0 0,0
18.01.2020 07:00:00 1,1 0,9 - - 9 5 - - NW 1025,5 23 0 0,0
18.01.2020 06:00:00 0,8 0,6 - - 4 2 - - W 1024,6 24 0 0,0
18.01.2020 05:00:00 0,9 0,6 - - 4 2 - - WNW 1023,9 28 0 0,0
18.01.2020 04:00:00 0,9 0,4 - - 4 2 - - WNW 1023,4 30 0 0,0
18.01.2020 03:00:00 1,5 0,7 - - 5 3 - - W 1022,8 40 0 0,0
18.01.2020 02:00:00 1,7 0,6 - - 5 3 - - W 1022,3 35 0 0,0
18.01.2020 01:00:00 2,6 1,0 - - 8 4 - - W 1021,6 40 0 0,0
18.01.2020 00:00:00 3,3 1,4 - - 9 5 - - W 1020,6 45 - 0,0
17.01.2020 23:00:00 3,7 1,7 - - 9 5 - - WNW 1020,0 40 0 0,0
17.01.2020 22:00:00 4,1 2,3 - - 8 4 - - WSW 1019,2 35 0 0,0
17.01.2020 21:00:00 3,5 2,4 - - 5 3 - - WSW 1019,0 35 0 0,0
17.01.2020 20:00:00 4,5 2,3 - - 5 3 - - W 1018,7 45 0 0,0
17.01.2020 19:00:00 4,2 1,9 - - 5 3 - - W 1018,5 45 0 0,0
17.01.2020 18:00:00 5,0 2,4 - - 8 4 - - W 1018,2 50 0 0,0
17.01.2020 17:00:00 6,0 2,0 - - 9 5 - - W 1017,4 50 0 0,0
17.01.2020 16:00:00 7,2 1,7 - - 11 6 - - W 1016,4 50 18 0,0
17.01.2020 15:00:00 8,6 3,0 - - 16 9 - - W 1015,4 45 60 0,0
17.01.2020 14:00:00 8,4 2,5 - - 22 12 - - W 1014,2 50 60 0,0
17.01.2020 13:00:00 8,6 3,3 - - 18 10 55 30 W 1013,3 50 54 0,0
17.01.2020 12:00:00 9,0 4,9 - - 22 12 50 27 W 1012,3 40 48 0,2
17.01.2020 11:00:00 8,8 6,5 - - 18 10 - - WSW 1011,7 6 18 0,0
17.01.2020 10:00:00 8,8 5,8 - - 16 9 48 26 WSW 1011,5 21 0 0,0
17.01.2020 09:00:00 9,1 8,0 8,5 8,9 11 6 - - WSW 1010,8 13 0 1,0
17.01.2020 08:00:00 9,3 8,4 - - 11 6 - - WSW 1010,5 13 0 0,6
17.01.2020 07:00:00 9,7 9,1 - - 16 9 - - SW 1010,2 13 0 0,0
17.01.2020 06:00:00 9,7 9,3 - - 16 9 - - SW 1010,1 14 0 0,0
17.01.2020 05:00:00 9,4 8,9 - - 18 10 - - SW 1010,0 11 0 0,2
17.01.2020 04:00:00 9,7 9,3 - - 16 9 - - SW 1009,9 13 0 0,2
17.01.2020 03:00:00 9,9 9,4 - - 18 10 - - SW 1010,4 15 0 0,2
17.01.2020 02:00:00 10,0 9,6 - - 22 12 - - SW 1010,8 11 0 1,2
17.01.2020 01:00:00 9,7 9,4 - - 11 6 - - SW 1010,8 7 0 3,0
17.01.2020 00:00:00 10,2 9,2 - - 21 11 - - SW 1011,4 9 - 1,4
16.01.2020 23:00:00 10,5 9,0 - - 18 10 - - SW 1011,5 14 0 0,8
16.01.2020 22:00:00 10,4 9,2 - - 21 11 - - SSW 1011,7 11 0 1,4
16.01.2020 21:00:00 11,2 8,2 - - 24 13 46 25 SSW 1011,8 14 0 0,0
16.01.2020 20:00:00 11,5 7,7 - - 24 13 48 26 SSW 1011,7 19 0 0,0
16.01.2020 19:00:00 11,4 7,8 - - 21 11 - - SSW 1012,2 22 0 0,0
16.01.2020 18:00:00 11,3 7,9 - - 21 11 - - SSW 1012,5 16 0 0,0
16.01.2020 17:00:00 11,5 7,7 - - 18 10 - - SW 1012,9 21 0 0,0
16.01.2020 16:00:00 11,0 7,8 - - 18 10 - - SSW 1012,6 17 0 0,0
16.01.2020 15:00:00 10,9 7,7 - - 22 12 - - S 1013,0 18 0 0,0
16.01.2020 14:00:00 10,7 8,0 - - 13 7 - - S 1013,7 13 18 0,0
16.01.2020 13:00:00 10,5 8,1 - - 13 7 - - S 1015,3 15 36 0,0
16.01.2020 12:00:00 8,6 7,4 - - 18 10 - - S 1016,7 16 0 0,0
16.01.2020 11:00:00 8,5 7,3 - - 16 9 - - S 1017,8 15 6 0,0
16.01.2020 10:00:00 7,8 6,5 - - 22 12 - - SSW 1018,7 23 0 0,0
16.01.2020 09:00:00 8,0 7,3 8,2 8,7 15 8 - - S 1019,0 14 0 0,2
16.01.2020 08:00:00 7,0 6,5 - - 13 7 - - S 1019,2 16 0 0,0
16.01.2020 07:00:00 7,1 6,4 - - 11 6 - - S 1019,5 15 0 0,0
16.01.2020 06:00:00 6,9 6,6 - - 9 5 - - S 1020,2 13 0 0,0
16.01.2020 05:00:00 5,7 5,5 - - 5 3 - - S 1020,6 15 0 0,0
16.01.2020 04:00:00 6,2 5,7 - - 5 3 - - S 1020,9 12 0 0,0
16.01.2020 03:00:00 6,6 5,7 - - 5 3 - - S 1021,0 7 0 0,0
16.01.2020 02:00:00 7,4 5,8 - - 11 6 - - SW 1020,9 20 0 0,0
16.01.2020 01:00:00 7,5 5,8 - - 11 6 - - SW 1020,3 16 0 0,0
16.01.2020 00:00:00 7,7 5,3 - - 15 8 - - SW 1020,0 19 - 0,0
15.01.2020 23:00:00 7,9 6,5 - - 13 7 - - SW 1019,8 16 0 0,0
15.01.2020 22:00:00 6,9 4,9 - - 8 4 - - SW 1019,2 15 0 0,0
15.01.2020 21:00:00 7,2 4,3 - - 9 5 - - WSW 1018,7 18 0 0,0
15.01.2020 20:00:00 7,4 4,5 - - 8 4 - - WSW 1017,9 15 0 0,0
15.01.2020 19:00:00 7,4 4,2 - - 8 4 - - WSW 1016,7 19 0 0,0
15.01.2020 18:00:00 7,6 5,0 - - 9 5 - - W 1015,7 16 0 0,0
15.01.2020 17:00:00 7,8 6,1 - - 11 6 - - WSW 1014,3 18 0 0,0
15.01.2020 16:00:00 8,4 6,6 - - 15 8 - - WSW 1012,7 35 42 0,0
15.01.2020 15:00:00 8,6 5,7 - - 16 9 - - WSW 1011,4 45 48 0,0
15.01.2020 14:00:00 8,6 5,5 - - 18 10 - - WSW 1009,9 45 60 0,0
15.01.2020 13:00:00 7,5 6,8 - - 9 5 - - SW 1009,1 45 6 0,4
15.01.2020 12:00:00 6,6 5,9 - - 4 2 - - WSW 1008,2 30 0 0,6
15.01.2020 11:00:00 6,5 5,7 - - 8 4 - - WNW 1007,0 12 0 1,8
15.01.2020 10:00:00 6,6 5,8 - - 13 7 - - NW 1005,7 15 0 1,4
15.01.2020 09:00:00 8,2 7,4 8,7 8,7 11 6 - - WNW 1003,5 4,8 0 0,4
15.01.2020 08:00:00 9,9 8,4 - - 18 10 50 27 SW 1002,5 10 0 0,4
15.01.2020 07:00:00 10,5 7,9 - - 29 16 61 33 SW 1001,5 11 0 0,0
15.01.2020 06:00:00 11,0 7,9 - - 34 18 59 32 SW 1001,2 14 0 0,0

tt = temperature
td = dewpoint
tt -20cm = temperature -20cm
tt -100cm = temperature -100cm
ff = wind speed
fx = gusts
dd = wind direction
ppp = reduced air pressure
vv = visibility
sd = sunshine duration
rr = precipitation

Next stations